Location: Peach Mountain Observatory
(42.3967°N, 83.9367°W)
Time: 11:06:06
(UTC-04:00)

deb Explorer IX - Pass Details

Date: 27 January 2020
Orbit: 548 x 1100 km, 38.8° (Epoch: 08 April)

Event Time Altitude Azimuth Distance (km) Brightness Sun altitude
Rises 02:07:15 0° 277° (W) 3,903 - -60.9°
Reaches altitude 10° 02:10:10 10° 271° (W) 2,953 - -60.5°
Maximum altitude 02:16:58 43° 204° (SSW) 1,480 - -59.7°
Drops below altitude 10° 02:23:24 10° 135° (SE) 2,796 - -58.8°
Sets 02:26:05 0° 129° (SE) 3,678 - -58.4°
